Weather Roundup
Issued by NWS

Home | Current Version | Previous Version | Graphics & Text | Print | Product List | Glossary Off
Versions: 1 2 3 4 5 6 7 8 9 10 11 12 13 14 15 16 17 18 19 20 21 22 23 24 25 26 27 28 29 30 31 32 33 34 35 36 37 38 39 40 41 42 43 44 45 46 47 48 49 50

754
NZUS93 KARX 241959
HRRWXR

CURRENT HOURLY OBSERVATIONS ACROSS
MUCH OF THE UPPER MISSISSIPPI VALLEY
NATIONAL WEATHER SERVICE LA CROSSE WI
300 PM CDT SUN JUL 24 2016


...SOUTHEAST MINNESOTA...


CITY           SKY/WX    TMP DP  RH WIND       PRES   REMARKS
ROCHESTER      SUNNY     82  66  58 W12G17    29.92R
ROCHESTER/MAYO FAIR      82  61  48 W16G24    29.91R
WINONA         SUNNY     84  63  48 W8        29.87R
AUSTIN           N/A     81 N/A N/A W13       29.94R
ALBERT LEA     MOSUNNY   81  64  57 W7        29.94F
DODGE CENTER   SUNNY     82  63  51 W14G20    29.93S
PRESTON        SUNNY     81  61  50 NW12      29.92S
OWATONNA       MOSUNNY   81  63  54 W13       29.94R
FARIBAULT      PTSUNNY   81  66  61 W14       29.93R
$$

...ELSEWHERE IN MINNESOTA...


CITY           SKY/WX    TMP DP  RH WIND       PRES   REMARKS
MINNEAPOLIS    MOSUNNY   85  63  47 NW12G25   29.89R
INTNL FALLS    MOSUNNY   76  61  59 W13G24    29.80R
DULUTH         MOSUNNY   79  60  52 NW13G24   29.83S
RED WING       SUNNY     84  61  45 W13       29.86S
REDWOOD FALLS  CLOUDY    80  62  54 W20       30.01R
MANKATO        MOSUNNY   79  63  57 NW12      29.95R
WORTHINGTON    LGT RAIN  74  65  73 NW6       30.05R
FAIRMONT       CLOUDY    79  45  29 W16       29.98R
$$

...SOUTHWEST WISCONSIN...


CITY           SKY/WX    TMP DP  RH WIND       PRES   REMARKS
LA CROSSE      SUNNY     89  66  46 NW10      29.85R HX  91
PRAIRIE DU CHI SUNNY     87  69  54 NW8       29.85R HX  91
BOSCOBEL       SUNNY     92  72  51 NW9       29.85R HX  99
LONE ROCK      NOT AVBL
PLATTEVILLE    CLOUDY    84  81  90 SW7       29.89R HX  99
FORT MC COY    SUNNY     87  66  49 W8        29.85F
MAUSTON-NEW LI PTCLDY    86  76  72 NW9       29.83S HX  96
VIROQUA        FAIR      85  63  47 N9        29.89S
WIS DELLS      NOT AVBL
$$

...ELSEWHERE IN WISCONSIN...


CITY           SKY/WX    TMP DP  RH WIND       PRES   REMARKS
MILWAUKEE      PTSUNNY   92  78  63 S16G22    29.81F HX 107
MADISON        PTSUNNY   90  79  70 NW9G17    29.83S HX 106
GREEN BAY      CLOUDY    83  80  91 W5        29.78F HX  95
EAU CLAIRE     NOT AVBL
BLACK RVR FLS  FAIR      87  64  45 NW8       29.84S
MEDFORD        PTSUNNY   81  67  61 W12       29.85F
WAUSAU         MOSUNNY   84  69  60 W14       29.82S
WIS RAPIDS     MOSUNNY   87  69  54 NW9       29.85S HX  91
MARSHFIELD     SUNNY     85  64  49 W16G22    29.85S
RICE LAKE      CLOUDY    80  62  55 W13G18    29.87R
$$

...NORTHEAST IOWA...


CITY           SKY/WX    TMP DP  RH WIND       PRES   REMARKS
WATERLOO       MOSUNNY   86  65  49 NW13      29.90R
DUBUQUE        MOSUNNY   86  79  79 SW7       29.89F HX  99
DECORAH        SUNNY     84  66  54 W8G15     29.90R
MASON CITY     CLOUDY    82  63  52 NW16G22   29.97R
CHARLES CITY   SUNNY     82  64  54 NW12G18   29.93S
OELWEIN        SUNNY     86  68  54 N9        29.91S
$$

...ELSEWHERE IN IOWA...


CITY           SKY/WX    TMP DP  RH WIND       PRES   REMARKS
DES MOINES     CLOUDY    87  64  46 N14       29.93S
IOWA CITY      PTSUNNY   90  79  70 NW9       29.89S HX 106
FORT DODGE     CLOUDY    81  63  54 NW5       29.97F
MARSHALLTOWN   CLOUDY    87  70  56 NW12      29.93R HX  92
CEDAR RAPIDS   PTSUNNY   87  80  79 NW6       29.89S HX 103
$$

...NORTHERN ILLINOIS...


CITY           SKY/WX    TMP DP  RH WIND       PRES   REMARKS
CHICAGO-OHARE  PTSUNNY   92  77  61 SW17G23   29.84F HX 105
CHICAGO-MIDWAY PTSUNNY   93  78  61 SW17G26   29.85F HX 108
MOLINE         CLOUDY    90  78  68 W10       29.86S HX 104
ROCKFORD       PTSUNNY   94  77  57 SW17      29.86F HX 108
PEORIA         PTSUNNY   91  81  72 S17G23    29.88S HX 111
$$

NOTE: "FAIR" INDICATES FEW OR NO CLOUDS BELOW 12,000 FEET WITH NO
SIGNIFICANT WEATHER AND/OR OBSTRUCTIONS TO VISIBILITY. WIND
SPEEDS ARE IN MILES-PER-HOUR.




USA.gov is the U.S. government's official web portal to all federal, state and local government web resources and services.